QPF
0.00 0.00 0.00 0.00 0.00 0.01 0.01 0.01 0.01 0.01 0.01 0.00 0.01 0.01 0.02 0.01 0.01 0.01 0.01 0.01 0.02 0.02 0.02 0.03 0.04 0.06 0.06 0.07 0.09 0.11 0.10 0.07 0.04 0.03 0.03 0.03 0.04 0.03 0.03 0.03 0.04 0.04 0.04 0.05
0.00 0.00 0.00 0.00 0.00 0.00 0.01 0.01 0.01 0.01 0.01 0.01 0.01 0.01 0.01 0.01 0.01 0.01 0.01 0.01 0.01 0.01 0.02 0.03 0.03 0.04 0.04 0.03 0.05 0.08 0.10 0.11 0.07 0.05 0.04 0.04 0.04 0.04 0.04 0.04 0.04 0.04 0.04 0.05
0.00 0.00 0.00 0.00 0.00 0.00 0.00 0.01 0.01 0.01 0.01 0.00 0.00 0.01 0.01 0.01 0.01 0.01 0.03 0.02 0.02 0.02 0.03 0.03 0.04 0.05 0.04 0.03 0.03 0.04 0.05 0.07 0.08 0.05 0.04 0.04 0.03 0.03 0.03 0.03 0.03 0.03 0.05 0.07
0.00 0.00 0.00 0.00 0.00 0.00 0.00 0.00 0.01 0.00 0.00 0.00 0.00 0.01 0.01 0.01 0.01 0.01 0.02 0.02 0.03 0.05 0.04 0.05 0.05 0.06 0.06 0.06 0.06 0.05 0.04 0.05 0.07 0.06 0.05 0.04 0.04 0.05 0.05 0.05 0.04 0.04 0.05 0.07
0.00 0.00 0.00 0.00 0.01 0.01 0.01 0.01 0.00 0.00 0.00 0.00 0.00 0.01 0.01 0.01 0.01 0.01 0.02 0.02 0.03 0.04 0.07 0.08 0.05 0.03 0.05 0.07 0.09 0.07 0.05 0.06 0.05 0.06 0.06 0.04 0.03 0.05 0.06 0.06 0.05 0.07 0.10 0.12
0.00 0.00 0.00 0.01 0.01 0.01 0.01 0.01 0.01 0.01 0.00 0.00 0.00 0.01 0.01 0.01 0.01 0.01 0.01 0.01 0.03 0.04 0.05 0.04 0.03 0.04 0.04 0.05 0.07 0.07 0.07 0.07 0.08 0.07 0.06 0.04 0.03 0.03 0.04 0.06 0.09 0.12 0.16 0.17
0.01 0.01 0.00 0.00 0.01 0.01 0.02 0.01 0.01 0.01 0.00 0.00 0.00 0.00 0.01 0.01 0.02 0.02 0.02 0.02 0.02 0.03 0.03 0.03 0.04 0.05 0.05 0.05 0.05 0.06 0.06 0.07 0.10 0.10 0.08 0.06 0.06 0.06 0.07 0.08 0.09 0.12 0.16 0.16
0.01 0.00 0.00 0.00 0.01 0.01 0.02 0.01 0.01 0.01 0.00 0.00 0.00 0.00 0.00 0.01 0.03 0.06 0.05 0.04 0.03 0.03 0.04 0.04 0.05 0.06 0.08 0.06 0.05 0.04 0.04 0.05 0.06 0.06 0.05 0.05 0.05 0.06 0.05 0.05 0.05 0.07 0.11 0.12
0.02 0.02 0.01 0.01 0.00 0.01 0.00 0.00 0.01 0.01 0.01 0.01 0.01 0.01 0.01 0.01 0.02 0.06 0.07 0.05 0.05 0.04 0.04 0.04 0.04 0.04 0.05 0.05 0.05 0.05 0.05 0.05 0.05 0.05 0.03 0.03 0.04 0.05 0.05 0.04 0.04 0.05 0.06 0.06
0.03 0.04 0.03 0.01 0.01 0.01 0.01 0.00 0.01 0.01 0.01 0.01 0.01 0.01 0.01 0.01 0.01 0.02 0.04 0.04 0.04 0.04 0.04 0.04 0.04 0.04 0.04 0.04 0.06 0.08 0.08 0.07 0.07 0.06 0.04 0.03 0.03 0.04 0.05 0.05 0.06 0.05 0.03 0.03
0.01 0.01 0.02 0.01 0.01 0.01 0.01 0.01 0.01 0.01 0.02 0.02 0.02 0.01 0.01 0.01 0.01 0.01 0.01 0.02 0.03 0.03 0.02 0.03 0.04 0.04 0.04 0.04 0.04 0.04 0.05 0.06 0.07 0.06 0.04 0.03 0.02 0.03 0.03 0.04 0.05 0.06 0.06 0.04
0.00 0.00 0.00 0.00 0.00 0.00 0.01 0.01 0.02 0.02 0.02 0.02 0.02 0.01 0.00 0.01 0.01 0.01 0.01 0.01 0.01 0.01 0.01 0.02 0.03 0.04 0.04 0.04 0.03 0.03 0.04 0.05 0.05 0.04 0.02 0.02 0.01 0.01 0.01 0.02 0.03 0.04 0.05 0.07
0.00 0.00 0.01 0.01 0.01 0.01 0.01 0.02 0.02 0.02 0.02 0.02 0.01 0.01 0.01 0.01 0.01 0.01 0.01 0.01 0.01 0.01 0.02 0.02 0.02 0.02 0.04 0.05 0.05 0.05 0.04 0.05 0.05 0.04 0.03 0.02 0.01 0.01 0.01 0.01 0.01 0.01 0.02 0.04
0.00 0.00 0.00 0.01 0.02 0.02 0.02 0.02 0.02 0.02 0.02 0.02 0.02 0.01 0.01 0.01 0.01 0.02 0.02 0.01 0.01 0.01 0.02 0.02 0.02 0.04 0.03 0.04 0.05 0.05 0.05 0.05 0.05 0.05 0.04 0.02 0.02 0.01 0.01 0.01 0.01 0.01 0.01 0.01
0.00 0.01 0.01 0.02 0.02 0.02 0.02 0.02 0.02 0.01 0.01 0.01 0.01 0.02 0.01 0.01 0.01 0.01 0.02 0.02 0.04 0.02 0.01 0.01 0.01 0.03 0.05 0.04 0.03 0.03 0.02 0.02 0.02 0.03 0.03 0.02 0.02 0.02 0.02 0.02 0.02 0.01 0.01 0.01
0.01 0.01 0.02 0.02 0.02 0.03 0.03 0.02 0.02 0.02 0.02 0.02 0.03 0.03 0.03 0.03 0.02 0.02 0.03 0.03 0.04 0.02 0.01 0.01 0.01 0.01 0.02 0.02 0.02 0.02 0.01 0.01 0.01 0.02 0.02 0.03 0.04 0.04 0.03 0.03 0.02 0.02 0.01 0.01
0.01 0.01 0.02 0.02 0.02 0.02 0.02 0.02 0.02 0.03 0.03 0.04 0.05 0.05 0.06 0.05 0.04 0.04 0.04 0.05 0.06 0.04 0.04 0.02 0.01 0.01 0.02 0.02 0.02 0.02 0.02 0.01 0.01 0.01 0.02 0.03 0.04 0.04 0.03 0.02 0.02 0.02 0.01 0.01
0.01 0.01 0.01 0.01 0.02 0.02 0.02 0.02 0.02 0.02 0.03 0.03 0.05 0.05 0.04 0.05 0.04 0.05 0.05 0.04 0.05 0.04 0.05 0.03 0.02 0.02 0.01 0.01 0.01 0.01 0.02 0.02 0.02 0.02 0.02 0.02 0.03 0.02 0.02 0.02 0.02 0.01 0.01 0.01
0.02 0.02 0.02 0.02 0.01 0.01 0.02 0.01 0.01 0.02 0.02 0.02 0.03 0.06 0.05 0.03 0.03 0.03 0.03 0.03 0.04 0.04 0.03 0.03 0.02 0.02 0.01 0.01 0.01 0.01 0.02 0.02 0.02 0.02 0.02 0.02 0.02 0.02 0.02 0.02 0.02 0.01 0.01 0.01
0.02 0.03 0.03 0.03 0.02 0.02 0.02 0.01 0.01 0.01 0.01 0.01 0.01 0.02 0.04 0.03 0.02 0.01 0.01 0.02 0.03 0.04 0.03 0.02 0.02 0.01 0.01 0.01 0.01 0.01 0.01 0.01 0.01 0.02 0.02 0.02 0.02 0.02 0.02 0.02 0.02 0.01 0.01 0.01
0.02 0.03 0.03 0.03 0.02 0.01 0.01 0.01 0.01 0.01 0.01 0.01 0.01 0.01 0.02 0.03 0.03 0.02 0.01 0.02 0.04 0.05 0.04 0.03 0.02 0.01 0.01 0.01 0.01 0.01 0.01 0.01 0.01 0.01 0.01 0.02 0.01 0.01 0.01 0.02 0.01 0.01 0.01 0.01
0.03 0.03 0.03 0.03 0.02 0.02 0.01 0.01 0.01 0.01 0.01 0.01 0.01 0.02 0.01 0.01 0.02 0.02 0.02 0.02 0.03 0.04 0.03 0.02 0.02 0.02 0.01 0.02 0.01 0.01 0.01 0.01 0.01 0.01 0.02 0.01 0.01 0.01 0.02 0.02 0.01 0.01 0.01 0.01
0.04 0.04 0.03 0.03 0.02 0.02 0.02 0.02 0.02 0.01 0.01 0.01 0.01 0.01 0.01 0.01 0.01 0.02 0.03 0.02 0.02 0.03 0.02 0.02 0.02 0.01 0.01 0.01 0.01 0.01 0.01 0.01 0.01 0.01 0.01 0.01 0.01 0.01 0.01 0.02 0.01 0.01 0.01 0.01
0.06 0.06 0.05 0.04 0.03 0.03 0.03 0.03 0.03 0.02 0.02 0.01 0.02 0.01 0.01 0.01 0.01 0.01 0.02 0.02 0.02 0.02 0.02 0.02 0.01 0.01 0.01 0.01 0.01 0.01 0.01 0.01 0.01 0.01 0.01 0.01 0.01 0.01 0.02 0.02 0.02 0.02 0.02 0.02
0.06 0.06 0.05 0.05 0.04 0.03 0.02 0.02 0.01 0.01 0.01 0.01 0.01 0.01 0.01 0.01 0.01 0.01 0.01 0.01 0.01 0.01 0.01 0.01 0.01 0.01 0.01 0.01 0.01 0.01 0.01 0.01 0.01 0.01 0.01 0.01 0.01 0.02 0.03 0.04 0.04 0.04 0.04 0.04
0.06 0.04 0.04 0.04 0.04 0.04 0.03 0.02 0.02 0.02 0.02 0.02 0.01 0.01 0.02 0.02 0.01 0.01 0.01 0.01 0.00 0.01 0.01 0.01 0.01 0.02 0.01 0.01 0.01 0.01 0.01 0.01 0.01 0.01 0.01 0.01 0.01 0.03 0.04 0.06 0.06 0.05 0.05 0.04
0.07 0.06 0.04 0.03 0.03 0.02 0.02 0.02 0.03 0.03 0.03 0.03 0.03 0.03 0.03 0.02 0.02 0.01 0.01 0.01 0.01 0.01 0.01 0.01 0.01 0.02 0.02 0.03 0.03 0.02 0.02 0.02 0.02 0.02 0.02 0.02 0.03 0.03 0.04 0.05 0.05 0.05 0.04 0.03
MSLP
1006.13 1006.72 1007.34 1007.95 1008.49 1008.89 1009.10 1009.07 1008.80 1008.31 1007.64 1006.88 1006.13 1005.49 1005.02 1004.79 1004.81 1005.05 1005.50 1006.07 1006.71 1007.37 1008.01 1008.60 1009.16 1009.69 1010.21 1010.75 1011.31 1011.87 1012.44 1013.00 1013.51 1013.96 1014.35 1014.66 1014.92 1015.13 1015.30 1015.46 1015.59 1015.71 1015.81 1015.88
1006.30 1006.77 1007.22 1007.61 1007.93 1008.14 1008.21 1008.12 1007.88 1007.49 1007.00 1006.45 1005.90 1005.43 1005.08 1004.88 1004.85 1004.99 1005.27 1005.67 1006.15 1006.68 1007.25 1007.84 1008.46 1009.10 1009.76 1010.44 1011.13 1011.82 1012.48 1013.09 1013.64 1014.12 1014.53 1014.87 1015.16 1015.40 1015.61 1015.80 1015.96 1016.09 1016.20 1016.26
1006.74 1007.09 1007.37 1007.57 1007.70 1007.75 1007.72 1007.60 1007.39 1007.12 1006.78 1006.42 1006.05 1005.72 1005.44 1005.23 1005.13 1005.12 1005.22 1005.41 1005.71 1006.10 1006.58 1007.15 1007.80 1008.51 1009.28 1010.08 1010.89 1011.67 1012.40 1013.06 1013.64 1014.15 1014.58 1014.94 1015.27 1015.56 1015.82 1016.05 1016.26 1016.43 1016.56 1016.64
1007.50 1007.73 1007.86 1007.91 1007.88 1007.81 1007.70 1007.57 1007.41 1007.23 1007.03 1006.81 1006.58 1006.34 1006.09 1005.86 1005.65 1005.48 1005.39 1005.38 1005.49 1005.73 1006.11 1006.62 1007.27 1008.02 1008.84 1009.71 1010.58 1011.40 1012.17 1012.85 1013.44 1013.96 1014.40 1014.80 1015.17 1015.51 1015.84 1016.14 1016.42 1016.64 1016.82 1016.93
1008.51 1008.64 1008.65 1008.58 1008.45 1008.29 1008.14 1008.00 1007.88 1007.78 1007.69 1007.58 1007.44 1007.25 1007.01 1006.72 1006.41 1006.10 1005.83 1005.65 1005.58 1005.67 1005.93 1006.37 1006.97 1007.69 1008.51 1009.38 1010.24 1011.06 1011.80 1012.46 1013.03 1013.54 1013.99 1014.41 1014.82 1015.23 1015.63 1016.02 1016.38 1016.69 1016.92 1017.09
1009.64 1009.70 1009.63 1009.48 1009.29 1009.08 1008.91 1008.78 1008.70 1008.66 1008.64 1008.60 1008.51 1008.35 1008.11 1007.78 1007.38 1006.96 1006.55 1006.22 1006.02 1005.97 1006.11 1006.45 1006.95 1007.60 1008.35 1009.14 1009.92 1010.66 1011.33 1011.92 1012.43 1012.90 1013.34 1013.78 1014.23 1014.71 1015.19 1015.68 1016.13 1016.53 1016.85 1017.08
1010.74 1010.75 1010.65 1010.47 1010.25 1010.04 1009.86 1009.75 1009.71 1009.71 1009.73 1009.74 1009.69 1009.54 1009.30 1008.94 1008.50 1008.01 1007.52 1007.09 1006.78 1006.62 1006.65 1006.87 1007.25 1007.77 1008.38 1009.03 1009.67 1010.27 1010.80 1011.28 1011.71 1012.11 1012.52 1012.96 1013.45 1013.98 1014.55 1015.12 1015.67 1016.17 1016.59 1016.91
1011.64 1011.65 1011.56 1011.39 1011.19 1010.99 1010.84 1010.76 1010.74 1010.77 1010.82 1010.85 1010.82 1010.70 1010.46 1010.11 1009.66 1009.15 1008.63 1008.16 1007.79 1007.55 1007.49 1007.58 1007.82 1008.18 1008.61 1009.08 1009.52 1009.93 1010.30 1010.62 1010.93 1011.25 1011.61 1012.04 1012.54 1013.12 1013.75 1014.40 1015.04 1015.64 1016.15 1016.56
1012.25 1012.30 1012.24 1012.12 1011.96 1011.82 1011.71 1011.65 1011.65 1011.70 1011.77 1011.81 1011.80 1011.70 1011.49 1011.17 1010.76 1010.28 1009.79 1009.32 1008.93 1008.65 1008.51 1008.49 1008.59 1008.77 1009.01 1009.25 1009.49 1009.69 1009.86 1010.03 1010.20 1010.42 1010.71 1011.11 1011.60 1012.20 1012.86 1013.57 1014.28 1014.95 1015.54 1016.05
1012.54 1012.64 1012.65 1012.60 1012.52 1012.43 1012.37 1012.34 1012.36 1012.42 1012.49 1012.55 1012.55 1012.48 1012.31 1012.05 1011.70 1011.29 1010.85 1010.43 1010.07 1009.78 1009.58 1009.47 1009.43 1009.45 1009.49 1009.54 1009.56 1009.56 1009.55 1009.55 1009.58 1009.70 1009.91 1010.24 1010.71 1011.29 1011.96 1012.69 1013.43 1014.14 1014.80 1015.38
1012.55 1012.72 1012.81 1012.84 1012.84 1012.81 1012.80 1012.80 1012.84 1012.90 1012.97 1013.03 1013.04 1013.00 1012.88 1012.68 1012.41 1012.09 1011.74 1011.39 1011.06 1010.78 1010.56 1010.38 1010.24 1010.12 1010.01 1009.87 1009.72 1009.54 1009.37 1009.22 1009.14 1009.14 1009.26 1009.52 1009.92 1010.45 1011.09 1011.79 1012.52 1013.25 1013.94 1014.58
1012.39 1012.63 1012.80 1012.91 1012.97 1013.01 1013.04 1013.07 1013.12 1013.17 1013.24 1013.29 1013.31 1013.29 1013.21 1013.07 1012.88 1012.64 1012.38 1012.10 1011.83 1011.58 1011.34 1011.13 1010.92 1010.70 1010.47 1010.20 1009.92 1009.62 1009.32 1009.06 1008.87 1008.77 1008.80 1008.97 1009.28 1009.73 1010.28 1010.92 1011.60 1012.30 1012.99 1013.65
1012.20 1012.49 1012.71 1012.89 1013.01 1013.10 1013.16 1013.22 1013.27 1013.33 1013.38 1013.42 1013.44 1013.43 1013.39 1013.30 1013.16 1012.99 1012.79 1012.57 1012.35 1012.12 1011.89 1011.65 1011.40 1011.13 1010.82 1010.48 1010.11 1009.73 1009.36 1009.02 1008.75 1008.56 1008.50 1008.57 1008.77 1009.11 1009.55 1010.09 1010.69 1011.32 1011.98 1012.63
1012.08 1012.39 1012.66 1012.87 1013.04 1013.16 1013.26 1013.33 1013.39 1013.44 1013.49 1013.53 1013.54 1013.54 1013.50 1013.43 1013.33 1013.19 1013.03 1012.85 1012.64 1012.43 1012.20 1011.95 1011.68 1011.38 1011.04 1010.67 1010.27 1009.85 1009.44 1009.05 1008.72 1008.46 1008.31 1008.28 1008.36 1008.57 1008.88 1009.30 1009.79 1010.34 1010.93 1011.56
1012.09 1012.40 1012.68 1012.92 1013.12 1013.27 1013.39 1013.48 1013.55 1013.61 1013.65 1013.68 1013.69 1013.68 1013.64 1013.57 1013.46 1013.33 1013.16 1012.98 1012.77 1012.55 1012.31 1012.04 1011.76 1011.45 1011.10 1010.73 1010.32 1009.90 1009.48 1009.07 1008.70 1008.39 1008.16 1008.02 1007.99 1008.06 1008.24 1008.52 1008.90 1009.36 1009.88 1010.47
1012.24 1012.54 1012.81 1013.05 1013.26 1013.43 1013.57 1013.69 1013.78 1013.85 1013.90 1013.93 1013.94 1013.91 1013.85 1013.75 1013.62 1013.45 1013.25 1013.03 1012.78 1012.53 1012.25 1011.97 1011.67 1011.35 1011.01 1010.64 1010.25 1009.84 1009.43 1009.01 1008.62 1008.25 1007.95 1007.72 1007.57 1007.53 1007.58 1007.75 1008.02 1008.38 1008.85 1009.39
1012.49 1012.76 1013.01 1013.24 1013.45 1013.64 1013.80 1013.94 1014.06 1014.16 1014.22 1014.26 1014.26 1014.21 1014.12 1013.99 1013.80 1013.58 1013.31 1013.03 1012.72 1012.40 1012.08 1011.75 1011.43 1011.10 1010.76 1010.40 1010.03 1009.64 1009.23 1008.80 1008.39 1007.98 1007.62 1007.31 1007.07 1006.92 1006.87 1006.93 1007.12 1007.42 1007.83 1008.35
1012.78 1013.00 1013.22 1013.44 1013.65 1013.85 1014.03 1014.19 1014.34 1014.46 1014.54 1014.59 1014.58 1014.52 1014.40 1014.21 1013.96 1013.67 1013.33 1012.96 1012.57 1012.18 1011.79 1011.42 1011.06 1010.71 1010.36 1010.01 1009.64 1009.26 1008.85 1008.42 1007.98 1007.53 1007.11 1006.73 1006.42 1006.19 1006.06 1006.06 1006.18 1006.44 1006.83 1007.33
1013.02 1013.21 1013.40 1013.60 1013.80 1014.00 1014.19 1014.37 1014.53 1014.67 1014.76 1014.81 1014.80 1014.71 1014.55 1014.32 1014.01 1013.64 1013.22 1012.77 1012.30 1011.84 1011.39 1010.97 1010.57 1010.19 1009.83 1009.47 1009.10 1008.71 1008.29 1007.85 1007.38 1006.90 1006.43 1006.00 1005.63 1005.34 1005.16 1005.12 1005.21 1005.45 1005.83 1006.34
1013.19 1013.35 1013.51 1013.69 1013.86 1014.04 1014.23 1014.40 1014.56 1014.69 1014.79 1014.83 1014.79 1014.68 1014.49 1014.21 1013.85 1013.42 1012.93 1012.42 1011.89 1011.37 1010.88 1010.41 1009.98 1009.57 1009.19 1008.82 1008.44 1008.03 1007.60 1007.13 1006.64 1006.13 1005.62 1005.14 1004.73 1004.40 1004.19 1004.12 1004.20 1004.44 1004.83 1005.35
1013.28 1013.41 1013.54 1013.68 1013.82 1013.96 1014.11 1014.25 1014.38 1014.49 1014.55 1014.56 1014.50 1014.36 1014.13 1013.81 1013.41 1012.94 1012.42 1011.87 1011.31 1010.76 1010.23 1009.74 1009.29 1008.88 1008.49 1008.10 1007.71 1007.29 1006.84 1006.35 1005.82 1005.28 1004.74 1004.23 1003.78 1003.43 1003.20 1003.11 1003.19 1003.43 1003.82 1004.35
1013.30 1013.40 1013.50 1013.59 1013.67 1013.76 1013.84 1013.92 1013.99 1014.04 1014.05 1014.01 1013.90 1013.72 1013.46 1013.11 1012.69 1012.21 1011.68 1011.12 1010.55 1010.00 1009.48 1008.99 1008.55 1008.13 1007.74 1007.35 1006.95 1006.52 1006.05 1005.55 1005.00 1004.43 1003.87 1003.33 1002.86 1002.49 1002.24 1002.14 1002.20 1002.43 1002.83 1003.36
1013.27 1013.35 1013.39 1013.42 1013.43 1013.44 1013.44 1013.43 1013.41 1013.38 1013.31 1013.21 1013.05 1012.83 1012.54 1012.18 1011.75 1011.27 1010.75 1010.21 1009.67 1009.14 1008.64 1008.18 1007.75 1007.35 1006.96 1006.58 1006.18 1005.75 1005.28 1004.77 1004.22 1003.64 1003.06 1002.51 1002.02 1001.63 1001.37 1001.25 1001.29 1001.49 1001.86 1002.37
1013.21 1013.25 1013.24 1013.20 1013.13 1013.04 1012.94 1012.83 1012.71 1012.58 1012.43 1012.25 1012.04 1011.78 1011.46 1011.09 1010.67 1010.21 1009.72 1009.21 1008.70 1008.21 1007.74 1007.31 1006.90 1006.52 1006.15 1005.78 1005.39 1004.97 1004.51 1004.00 1003.46 1002.89 1002.32 1001.78 1001.29 1000.89 1000.60 1000.46 1000.47 1000.63 1000.96 1001.42
1013.10 1013.09 1013.03 1012.91 1012.76 1012.58 1012.38 1012.17 1011.95 1011.73 1011.50 1011.26 1010.99 1010.69 1010.36 1009.99 1009.58 1009.14 1008.67 1008.19 1007.72 1007.25 1006.80 1006.38 1005.99 1005.61 1005.25 1004.89 1004.51 1004.10 1003.66 1003.18 1002.67 1002.14 1001.60 1001.08 1000.62 1000.22 999.93 999.76 999.74 999.85 1000.12 1000.52
1012.90 1012.85 1012.73 1012.55 1012.32 1012.06 1011.78 1011.49 1011.19 1010.90 1010.61 1010.32 1010.02 1009.70 1009.35 1008.98 1008.57 1008.14 1007.68 1007.21 1006.73 1006.26 1005.80 1005.36 1004.95 1004.55 1004.17 1003.80 1003.43 1003.04 1002.63 1002.19 1001.74 1001.27 1000.80 1000.34 999.92 999.57 999.30 999.13 999.07 999.14 999.35 999.67
1012.57 1012.47 1012.31 1012.08 1011.81 1011.49 1011.16 1010.82 1010.48 1010.15 1009.83 1009.51 1009.19 1008.85 1008.50 1008.12 1007.71 1007.26 1006.79 1006.28 1005.76 1005.24 1004.72 1004.21 1003.73 1003.27 1002.84 1002.43 1002.03 1001.65 1001.28 1000.90 1000.53 1000.15 999.78 999.43 999.11 998.83 998.61 998.47 998.42 998.47 998.62 998.87
Thickness
5757 5765 5766 5766 5766 5763 5759 5754 5748 5755 5756 5770 5776 5778 5780 5780 5778 5776 5775 5774 5772 5770 5768 5765 5762 5759 5757 5754 5752 5749 5744 5739 5735 5733 5730 5728 5725 5721 5719 5716 5714 5711 5708 5706
5750 5759 5761 5759 5762 5763 5762 5760 5757 5759 5759 5775 5778 5777 5775 5775 5774 5771 5770 5770 5768 5766 5763 5761 5758 5756 5753 5749 5746 5743 5739 5734 5731 5729 5725 5722 5718 5715 5712 5709 5707 5705 5702 5699
5730 5746 5750 5740 5754 5758 5757 5759 5759 5754 5763 5771 5769 5770 5769 5770 5769 5768 5767 5766 5763 5760 5758 5756 5754 5752 5748 5745 5742 5738 5734 5730 5726 5723 5719 5716 5713 5709 5706 5703 5700 5698 5696 5693
5719 5729 5718 5741 5762 5763 5757 5757 5761 5763 5765 5767 5767 5767 5767 5766 5764 5763 5762 5761 5759 5757 5754 5752 5749 5746 5743 5740 5736 5732 5727 5724 5720 5718 5714 5711 5707 5704 5701 5698 5694 5692 5690 5687
5706 5708 5719 5740 5754 5754 5749 5747 5759 5758 5761 5761 5761 5760 5757 5760 5761 5759 5758 5756 5754 5752 5750 5747 5743 5740 5736 5731 5727 5722 5719 5716 5714 5711 5708 5705 5701 5698 5695 5692 5689 5686 5684 5682
5702 5704 5704 5731 5753 5759 5751 5737 5755 5757 5755 5753 5753 5743 5745 5754 5754 5752 5751 5750 5748 5746 5742 5739 5736 5732 5727 5722 5718 5714 5712 5710 5707 5704 5701 5698 5695 5692 5689 5686 5682 5680 5678 5676
5698 5700 5710 5734 5747 5751 5728 5735 5754 5754 5751 5748 5745 5745 5746 5747 5745 5744 5742 5741 5739 5736 5732 5729 5727 5723 5718 5713 5710 5708 5706 5703 5699 5696 5693 5690 5687 5684 5681 5678 5675 5672 5669 5667
5691 5694 5704 5735 5737 5732 5734 5746 5749 5748 5746 5743 5740 5740 5739 5738 5735 5734 5731 5730 5729 5725 5721 5719 5717 5714 5710 5705 5704 5700 5697 5694 5690 5687 5686 5683 5678 5675 5672 5669 5665 5662 5660 5658
5697 5703 5718 5726 5730 5736 5738 5738 5741 5741 5740 5738 5733 5731 5729 5727 5725 5724 5722 5720 5719 5716 5712 5709 5707 5705 5701 5699 5697 5693 5689 5684 5681 5678 5675 5672 5669 5667 5663 5659 5656 5653 5651 5648
5695 5705 5714 5719 5725 5730 5733 5734 5736 5735 5734 5732 5726 5723 5720 5718 5715 5714 5712 5710 5709 5706 5703 5699 5697 5695 5694 5691 5689 5685 5680 5676 5673 5670 5666 5663 5660 5658 5655 5651 5648 5645 5642 5640
5689 5699 5707 5714 5718 5722 5725 5728 5728 5727 5725 5723 5719 5715 5712 5709 5707 5705 5703 5701 5699 5696 5693 5690 5687 5685 5684 5682 5679 5676 5671 5667 5664 5661 5658 5655 5652 5649 5647 5644 5642 5638 5635 5632
5686 5695 5696 5701 5710 5715 5716 5717 5717 5716 5713 5712 5711 5707 5704 5701 5698 5696 5693 5691 5689 5686 5684 5681 5679 5677 5675 5673 5670 5667 5663 5659 5655 5652 5649 5647 5643 5640 5639 5637 5634 5632 5629 5625
5690 5695 5695 5699 5703 5706 5707 5708 5708 5707 5706 5702 5700 5699 5696 5692 5689 5687 5685 5683 5680 5678 5676 5673 5670 5668 5667 5665 5662 5659 5656 5651 5648 5644 5642 5639 5636 5633 5630 5628 5626 5623 5621 5617
5687 5688 5687 5691 5693 5697 5698 5699 5699 5698 5697 5694 5691 5689 5686 5683 5680 5678 5676 5674 5673 5670 5667 5664 5661 5660 5659 5656 5654 5651 5649 5646 5642 5637 5634 5631 5628 5625 5622 5619 5616 5613 5611 5608
5681 5684 5683 5685 5686 5687 5688 5688 5686 5685 5685 5682 5681 5678 5676 5673 5670 5669 5668 5665 5664 5661 5658 5656 5653 5651 5651 5649 5646 5643 5640 5638 5634 5630 5627 5623 5620 5617 5614 5611 5607 5604 5601 5598
5674 5676 5677 5676 5677 5678 5678 5678 5675 5674 5674 5672 5669 5667 5666 5664 5661 5659 5658 5656 5654 5652 5650 5648 5646 5645 5643 5641 5638 5636 5633 5631 5627 5622 5618 5616 5612 5609 5605 5602 5599 5596 5593 5590
5665 5665 5666 5667 5668 5669 5670 5670 5668 5667 5666 5664 5661 5658 5656 5653 5650 5648 5647 5647 5646 5644 5642 5641 5639 5638 5636 5633 5630 5628 5625 5622 5619 5614 5611 5608 5604 5601 5598 5595 5592 5589 5587 5584
5665 5665 5665 5665 5663 5662 5662 5662 5661 5660 5658 5657 5654 5650 5646 5644 5641 5639 5638 5637 5636 5634 5633 5632 5631 5630 5628 5625 5622 5619 5616 5613 5610 5606 5603 5600 5597 5595 5591 5588 5585 5583 5580 5577
5660 5660 5660 5659 5658 5657 5656 5655 5654 5652 5650 5647 5644 5641 5639 5636 5634 5631 5630 5628 5626 5625 5626 5625 5624 5621 5619 5617 5615 5612 5609 5605 5602 5599 5596 5593 5590 5588 5585 5582 5579 5576 5573 5570
5653 5654 5653 5652 5652 5651 5649 5648 5646 5643 5641 5639 5635 5632 5630 5628 5627 5624 5621 5619 5619 5619 5619 5617 5615 5614 5612 5610 5609 5605 5602 5599 5596 5592 5589 5586 5584 5582 5579 5576 5573 5570 5567 5564
5645 5646 5645 5644 5644 5643 5642 5640 5637 5634 5632 5631 5628 5625 5623 5621 5619 5616 5613 5612 5613 5613 5612 5611 5609 5607 5606 5603 5601 5598 5595 5592 5589 5586 5584 5581 5578 5576 5573 5570 5567 5564 5561 5558
5638 5638 5637 5636 5635 5634 5633 5632 5630 5627 5625 5622 5620 5619 5616 5614 5611 5609 5607 5608 5609 5608 5606 5605 5603 5601 5599 5596 5594 5591 5589 5586 5583 5581 5578 5575 5572 5569 5567 5564 5561 5558 5555 5552
5630 5630 5630 5629 5628 5626 5625 5624 5622 5621 5618 5617 5614 5612 5610 5609 5606 5604 5603 5604 5603 5602 5600 5598 5597 5594 5591 5589 5587 5584 5582 5579 5577 5575 5572 5569 5566 5563 5560 5557 5554 5552 5549 5546
5622 5622 5622 5622 5621 5619 5617 5616 5615 5613 5611 5610 5608 5607 5605 5603 5601 5600 5600 5598 5597 5595 5593 5591 5589 5587 5585 5582 5580 5577 5574 5572 5570 5567 5565 5562 5559 5556 5554 5551 5548 5545 5543 5540
5615 5615 5614 5614 5613 5612 5610 5608 5606 5605 5603 5602 5602 5601 5600 5598 5596 5595 5593 5592 5591 5589 5586 5584 5582 5580 5578 5576 5573 5571 5568 5565 5563 5560 5558 5555 5552 5550 5547 5545 5542 5540 5537 5534
5607 5607 5607 5607 5605 5604 5603 5601 5599 5598 5597 5596 5596 5595 5594 5592 5590 5589 5587 5585 5584 5582 5580 5577 5575 5573 5571 5569 5567 5564 5562 5559 5557 5554 5551 5549 5546 5543 5541 5539 5537 5534 5532 5530
5600 5599 5598 5598 5598 5597 5597 5596 5594 5593 5592 5591 5590 5589 5588 5586 5584 5582 5580 5579 5578 5576 5574 5572 5569 5567 5565 5563 5560 5558 5556 5553 5551 5548 5545 5543 5540 5538 5536 5534 5531 5529 5527 5525